THOR ABLESTAR DEB, 232

Orbit data source: Space-Track

THOR ABLESTAR DEB, 232 is space debris in LEO originally from a launch on Thu, 29 Jun 1961 UTC launched from the Air Force Eastern Test Range (AFETR). Debris objects in space refer to the collection of defunct objects orbiting the Earth. Examples of debris include non-operational satellites, rocket bodies, and fragments generated from explosions, collisions, or faulty payload assembly.

Loading next visibility...
Identifier
232, 1961-015BQ
Orbit
LEO
Country
Flag of USUS
Related business
Manufacturer
Unknown
Mission
Spacecraft
Bus & Motor
Unknown
Mass
Unknown
Launch date (UTC)
1961-06-29 (64 years ago)
Launch vehicle
Unknown
Launch site
Air Force Eastern Test Range (AFETR)
Object type
Payload
Rocket body
Debris
Shape & HBR
Unknown shape, 0.2 m
Radar Cross Section
Medium (>0.1 m² and <1 m²)

Expand to show TLE details & history
Last TLE update: 17 hours ago

TLE from 17 hours ago
0 THOR ABLESTAR DEB
1 00232U 61015BQ  25296.84940673  .00000448  00000-0  34741-3 0  9993
2 00232  66.8199  79.6720 0063947 272.7427  86.6339 14.00632425273890
Epoch: 2025-10-23T20:23Z
TLE epoch observation values (Epoch: 2025-10-23T20:23:08.741Z)
Latitude
-0°
Longitude
101.38282°
Altitude
891.26 km
Speed
7.408 km/s
True Right ascension
05h 18m 41s
True Declination
0° 00' 00"
Sunlit
Object was in full shadow at epoch
Visualization orbit readout
Latitude
Unknown
Longitude
Unknown
Altitude
Unknown
Speed
Unknown
Apparent Right ascension
Unknown
Apparent Declination
Unknown
Sunlit
N/A
Visualization observer readout
Local Sidereal Time
08:16:51
Azimuth
Unknown
Elevation
Unknown
Doppler factor
Unknown
Orbital elements
Apogee altitude
936.467 km
Perigee altitude
843.512 km
Semi-major axis
7,268.126 km
Eccentricity
0.00639
Inclination
66.8199°
RAAN
79.672°
Arg. of periapsis
272.7427°
True anomaly
87.36574°
Mean anomaly
86.6339°
Eccentric anomaly
86.99979°
Mean motion
3.50275 °/min
Orbital period
102.78 mins
BSTAR
0.00034741

Documentation

Showing up to 5 results
|